Fort Wayne, IN

5:56 AM EST on November 22, 2019 (GMT -0500)
Fort Wayne International

Weather History for KFWA - September, 2019

Change the Weather History Date:

Wednesday, September 18, 2019

  Actual Average Record
Temperature  
Mean Temperature 69 °F 64 °F  
Max Temperature 82 °F 75 °F 93 °F (1955)
Min Temperature 56 °F 52 °F 33 °F (1900)
Degree Days  
Heating Degree Days 0 4  
Month to date heating degree days 10 35  
Since 1 July heating degree days 11 47  
Cooling Degree Days 4 2  
Month to date cooling degree days 81 65  
Year to date cooling degree days 919 782  
Growing Degree Days 18 (Base 50)    
Moisture  
Dew Point 58 °F    
Average Humidity 69    
Maximum Humidity 93    
Minimum Humidity 45    
Precipitation  
Precipitation 0.00 in 0.09 in 1.25 in (1899)
Month to date precipitation 0.82 1.69  
Year to date precipitation 29.09 28.53  
Sea Level Pressure  
Sea Level Pressure 30.15 in    
Wind  
Wind Speed 6 mph (East)    
Max Wind Speed 14 mph    
Max Gust Speed 20 mph    
Visibility 10 miles    
Events      
T = Trace of Precipitation, MM = Missing Value Source: NWS Daily Summary

Daily Weather History Graph

Daily Weather History Graph

Search for Another Location

Airport or City:

Astronomy

Sep. 18, 2019 Rise Set
Actual Time 7:24 AM EDT 7:45 PM EDT
Civil Twilight 6:56 AM EDT 8:12 PM EDT
Nautical Twilight 6:24 AM EDT 8:44 PM EDT
Astronomical Twilight 5:51 AM EDT 9:17 PM EDT
Moon 10:16 PM EDT (9/18) 11:28 AM EDT (9/18)
Length of Visible Light 13h 16m
Length of Day
12h 21m
Waning Gibbous, 82% of the Moon is Illuminated
Sep 18
Waning Gibbous
Sep 21
Last Quarter
Sep 28
New
Oct 5
First Quarter
Oct 13
Full

Hourly Weather History & Observations

Time (EDT) Temp. Heat Index Dew Point Humidity Pressure Visibility Wind Dir Wind Speed Gust Speed Precip Events Conditions
12:54 AM 60.1 °F - 57.9 °F 93% 30.16 in 10.0 mi Calm Calm - N/A   Mostly Cloudy
1:54 AM 59.0 °F - 57.0 °F 93% 30.17 in 10.0 mi ENE 5.8 mph - N/A   Mostly Cloudy
2:54 AM 59.0 °F - 57.0 °F 93% 30.16 in 10.0 mi ENE 3.5 mph - N/A   Scattered Clouds
3:54 AM 57.9 °F - 55.9 °F 93% 30.14 in 10.0 mi ENE 4.6 mph - N/A   Scattered Clouds
4:54 AM 57.0 °F - 55.9 °F 96% 30.15 in 10.0 mi ENE 4.6 mph - N/A   Partly Cloudy
5:54 AM 57.0 °F - 55.0 °F 93% 30.14 in 10.0 mi ENE 3.5 mph - N/A   Partly Cloudy
6:54 AM 55.9 °F - 54.0 °F 93% 30.15 in 10.0 mi ENE 5.8 mph - N/A   Partly Cloudy
7:54 AM 57.0 °F - 55.9 °F 96% 30.16 in 9.0 mi East 3.5 mph - N/A   Partly Cloudy
8:54 AM 60.1 °F - 57.0 °F 90% 30.16 in 10.0 mi East 6.9 mph - N/A   Partly Cloudy
9:54 AM 64.9 °F - 59.0 °F 81% 30.16 in 10.0 mi East 4.6 mph - N/A   Partly Cloudy
10:54 AM 70.0 °F - 60.1 °F 71% 30.16 in 10.0 mi East 6.9 mph - N/A   Partly Cloudy
11:54 AM 75.0 °F - 61.0 °F 62% 30.17 in 10.0 mi East 5.8 mph - N/A   Partly Cloudy
12:54 PM 78.1 °F - 57.9 °F 50% 30.17 in 10.0 mi East 9.2 mph - N/A   Scattered Clouds
1:54 PM 78.1 °F - 57.9 °F 50% 30.17 in 10.0 mi East 8.1 mph - N/A   Scattered Clouds
2:54 PM 80.1 °F 80.7 °F 59.0 °F 48% 30.16 in 10.0 mi Variable 3.5 mph - N/A   Scattered Clouds
3:54 PM 81.0 °F 81.0 °F 57.0 °F 44% 30.13 in 10.0 mi ENE 8.1 mph - N/A   Scattered Clouds
4:54 PM 81.0 °F 81.1 °F 57.9 °F 45% 30.12 in 10.0 mi East 9.2 mph - N/A   Scattered Clouds
5:54 PM 78.1 °F - 57.0 °F 48% 30.11 in 10.0 mi East 6.9 mph - N/A   Mostly Cloudy
6:54 PM 73.9 °F - 59.0 °F 59% 30.11 in 10.0 mi East 4.6 mph - N/A   Mostly Cloudy
7:54 PM 73.0 °F - 57.9 °F 59% 30.12 in 10.0 mi ENE 8.1 mph - N/A   Mostly Cloudy
8:54 PM 69.1 °F - 55.9 °F 63% 30.12 in 10.0 mi ENE 9.2 mph - N/A   Scattered Clouds
9:54 PM 66.9 °F - 57.9 °F 73% 30.14 in 10.0 mi East 9.2 mph - N/A   Partly Cloudy
10:54 PM 64.0 °F - 59.0 °F 84% 30.14 in 10.0 mi East 6.9 mph - N/A   Partly Cloudy
11:54 PM 62.1 °F - 57.0 °F 84% 30.14 in 10.0 mi ENE 5.8 mph - N/A   Partly Cloudy